| time (UTC) | temp F | wind direction | speed MPH | gust MPH | rain 1hr in | rain 24hr in | rain mn in | humidity % | barometer mb |
| 20260505011004 | 63 | 254 | 4.0 | 14.0 | 0.00 | 0.00 | 0.00 | 69 | 1015.2 |
| 20260505010004 | 63 | 255 | 4.0 | 10.0 | 0.00 | 0.00 | 0.00 | 69 | 1015.3 |
| 20260505005025 | 63 | 258 | 4.0 | 9.0 | 0.00 | 0.00 | 0.00 | 69 | 1015.3 |
| 20260505004004 | 63 | 237 | 6.0 | 12.0 | 0.00 | 0.00 | 0.00 | 70 | 1015.4 |
| 20260505003025 | 63 | 239 | 6.0 | 12.0 | 0.00 | 0.00 | 0.00 | 70 | 1015.3 |
| 20260505002004 | 64 | 249 | 7.0 | 14.0 | 0.00 | 0.00 | 0.00 | 70 | 1015.3 |
| 20260505001004 | 64 | 242 | 7.0 | 15.0 | 0.00 | 0.00 | 0.00 | 68 | 1015.2 |
| 20260505000004 | 66 | 237 | 6.0 | 14.0 | 0.00 | 0.00 | 0.00 | 65 | 1015.1 |
| 20260504235004 | 65 | 227 | 5.0 | 14.0 | 0.00 | 0.00 | 0.00 | 65 | 1014.9 |
| 20260504234004 | 66 | 229 | 5.0 | 15.0 | 0.00 | 0.00 | 0.00 | 63 | 1014.9 |
| 20260504233025 | 67 | 238 | 5.0 | 14.0 | 0.00 | 0.00 | 0.00 | 59 | 1014.9 |
| 20260504232004 | 68 | 233 | 6.0 | 13.0 | 0.00 | 0.00 | 0.00 | 60 | 1015.1 |
| 20260504231025 | 69 | 248 | 6.0 | 14.0 | 0.00 | 0.00 | 0.00 | 59 | 1014.9 |
| 20260504230004 | 68 | 250 | 6.0 | 13.0 | 0.00 | 0.00 | 0.00 | 61 | 1015.0 |
| 20260504225004 | 67 | 240 | 6.0 | 16.0 | 0.00 | 0.00 | 0.00 | 62 | 1015.2 |
| 20260504224004 | 67 | 262 | 7.0 | 13.0 | 0.00 | 0.00 | 0.00 | 62 | 1015.3 |
| 20260504223004 | 67 | 252 | 7.0 | 15.0 | 0.00 | 0.00 | 0.00 | 60 | 1015.4 |
| 20260504222025 | 68 | 240 | 8.0 | 15.0 | 0.00 | 0.00 | 0.00 | 58 | 1015.4 |
| 20260504221003 | 67 | 246 | 6.0 | 15.0 | 0.00 | 0.00 | 0.00 | 58 | 1015.7 |
| 20260504220004 | 69 | 231 | 6.0 | 15.0 | 0.00 | 0.00 | 0.00 | 57 | 1015.8 |
| 20260504215004 | 69 | 246 | 8.0 | 14.0 | 0.00 | 0.00 | 0.00 | 58 | 1015.9 |
| 20260504214004 | 68 | 240 | 8.0 | 17.0 | 0.00 | 0.00 | 0.00 | 57 | 1016.0 |
| 20260504213004 | 69 | 239 | 8.0 | 16.0 | 0.00 | 0.00 | 0.00 | 56 | 1016.1 |
| 20260504212003 | 68 | 251 | 9.0 | 18.0 | 0.00 | 0.00 | 0.00 | 57 | 1016.0 |
| 20260504211004 | 68 | 246 | 8.0 | 17.0 | 0.00 | 0.00 | 0.00 | 57 | 1016.1 |
| 20260504210025 | 68 | 251 | 8.0 | 17.0 | 0.00 | 0.00 | 0.00 | 56 | 1016.0 |
| 20260504204004 | 70 | 249 | 6.0 | 16.0 | 0.00 | 0.00 | 0.00 | 54 | 1016.0 |
| 20260504203004 | 70 | 245 | 6.0 | 16.0 | 0.00 | 0.00 | 0.00 | 54 | 1016.0 |
| 20260504202025 | 69 | 253 | 7.0 | 16.0 | 0.00 | 0.00 | 0.00 | 55 | 1016.0 |
| 20260504201003 | 69 | 246 | 7.0 | 16.0 | 0.00 | 0.00 | 0.00 | 54 | 1016.0 |
| 20260504200003 | 69 | 241 | 6.0 | 15.0 | 0.00 | 0.00 | 0.00 | 55 | 1015.9 |
| 20260504195004 | 69 | 242 | 6.0 | 14.0 | 0.00 | 0.00 | 0.00 | 54 | 1016.0 |
| 20260504194003 | 68 | 238 | 7.0 | 11.0 | 0.00 | 0.00 | 0.00 | 54 | 1015.9 |
| 20260504193003 | 68 | 252 | 8.0 | 14.0 | 0.00 | 0.00 | 0.00 | 53 | 1016.0 |
| 20260504192024 | 69 | 240 | 6.0 | 16.0 | 0.00 | 0.00 | 0.00 | 51 | 1015.9 |
| 20260504191024 | 69 | 255 | 6.0 | 14.0 | 0.00 | 0.00 | 0.00 | 51 | 1015.9 |
| 20260504190004 | 69 | 234 | 6.0 | 13.0 | 0.00 | 0.00 | 0.00 | 52 | 1015.9 |
| 20260504185024 | 69 | 237 | 5.0 | 13.0 | 0.00 | 0.00 | 0.00 | 51 | 1016.1 |
| 20260504184003 | 69 | 248 | 6.0 | 12.0 | 0.00 | 0.00 | 0.00 | 52 | 1016.1 |
| 20260504183004 | 69 | 257 | 5.0 | 11.0 | 0.00 | 0.00 | 0.00 | 51 | 1016.2 |
| 20260504182025 | 68 | 251 | 6.0 | 11.0 | 0.00 | 0.00 | 0.00 | 52 | 1016.2 |
| 20260504181003 | 68 | 250 | 5.0 | 13.0 | 0.00 | 0.00 | 0.00 | 54 | 1016.3 |
| 20260504180003 | 68 | 264 | 5.0 | 13.0 | 0.00 | 0.00 | 0.00 | 53 | 1016.2 |
| 20260504175024 | 68 | 262 | 5.0 | 11.0 | 0.00 | 0.00 | 0.00 | 54 | 1016.0 |
| 20260504172003 | 68 | 245 | 5.0 | 12.0 | 0.00 | 0.00 | 0.00 | 54 | 1015.9 |
| 20260504171004 | 68 | 255 | 4.0 | 10.0 | 0.00 | 0.00 | 0.00 | 53 | 1015.9 |
| 20260504151003 | 58 | 57 | 2.0 | 4.0 | 0.00 | 0.00 | 0.00 | 83 | 1015.2 |
| 20260504141024 | 53 | 271 | 1.0 | 4.0 | 0.00 | 0.00 | 0.00 | 87 | 1015.2 |
| 20260504082003 | 58 | 245 | 2.0 | 6.0 | 0.00 | 0.00 | 0.00 | 81 | 1015.7 |
| 20260504081003 | 58 | 226 | 1.0 | 6.0 | 0.00 | 0.00 | 0.00 | 81 | 1015.9 |
| 20260504050003 | 59 | 263 | 3.0 | 8.0 | 0.00 | 0.00 | 0.00 | 77 | 1015.6 |
| 20260504045003 | 59 | 257 | 2.0 | 7.0 | 0.00 | 0.00 | 0.00 | 77 | 1015.5 |
| 20260504044003 | 59 | 251 | 2.0 | 5.0 | 0.00 | 0.00 | 0.00 | 76 | 1015.4 |
| 20260504043003 | 59 | 249 | 4.0 | 6.0 | 0.00 | 0.00 | 0.00 | 76 | 1015.0 |
| 20260504042003 | 59 | 256 | 3.0 | 9.0 | 0.00 | 0.00 | 0.00 | 75 | 1015.1 |
| 20260504041003 | 59 | 257 | 3.0 | 9.0 | 0.00 | 0.00 | 0.00 | 75 | 1014.9 |
| 20260504040024 | 60 | 243 | 3.0 | 6.0 | 0.00 | 0.00 | 0.00 | 74 | 1014.6 |
| 20260504035003 | 60 | 239 | 3.0 | 7.0 | 0.00 | 0.00 | 0.00 | 74 | 1014.5 |
| 20260504034024 | 60 | 247 | 3.0 | 7.0 | 0.00 | 0.00 | 0.00 | 75 | 1014.5 |
| 20260504033003 | 60 | 236 | 4.0 | 8.0 | 0.00 | 0.00 | 0.00 | 74 | 1014.4 |
| 20260504030004 | 60 | 255 | 4.0 | 8.0 | 0.00 | 0.00 | 0.00 | 72 | 1014.1 |
| 20260504025025 | 60 | 261 | 4.0 | 8.0 | 0.00 | 0.00 | 0.00 | 73 | 1013.9 |
| 20260504024004 | 61 | 257 | 3.0 | 8.0 | 0.00 | 0.00 | 0.00 | 73 | 1014.2 |
| 20260504023025 | 61 | 305 | 2.0 | 7.0 | 0.00 | 0.00 | 0.00 | 73 | 1014.2 |
| 20260504022004 | 61 | 267 | 3.0 | 8.0 | 0.00 | 0.00 | 0.00 | 73 | 1014.2 |
| 20260504021004 | 61 | 257 | 5.0 | 9.0 | 0.00 | 0.00 | 0.00 | 73 | 1014.0 |
| 20260504020025 | 61 | 253 | 4.0 | 10.0 | 0.00 | 0.00 | 0.00 | 72 | 1014.0 |
| 20260504015004 | 62 | 252 | 4.0 | 11.0 | 0.00 | 0.00 | 0.00 | 72 | 1014.2 |
| 20260504014004 | 62 | 279 | 5.0 | 11.0 | 0.00 | 0.00 | 0.00 | 71 | 1013.9 |
| 20260504012025 | 62 | 253 | 5.0 | 13.0 | 0.00 | 0.00 | 0.00 | 70 | 1013.9 |